User: anonymous   Login
Location: ???? ?????????
(31.1304°N, 31.7111°E)
Time: 12:13:51
(UTC+00:00)
Language:

Delta 142 - Orbit

View from above orbital plane
View from above orbital plane
View from above satellite
View from above satellite

Ground track
Ground track

The orbit data is extracted from the following two-line orbital elements,

1 10954U 78062B   21022.97867351  .00000097  00000-0  24594-8 0  9993
2 10954  28.4267 118.7800 0698350  63.9532 303.1219 13.50990169 94728
Epoch (UTC): 22 January 2021 23:29:17
Eccentricity: 0.0698350
inclination: 28.4267°
perigee height: 548 km
apogee height: 1588 km
right ascension of ascending node: 118.7800°
argument of perigee: 63.9532°
revolutions per day: 13.50990169
mean anomaly at epoch: 303.1219°
orbit number at epoch: 9472

The dashed part of the orbit path shows where the satellite is in the earth's shadow,  

DLR